MST,Max TemperatureF,Mean TemperatureF,Min TemperatureF,Max Dew PointF,MeanDew PointF,Min DewpointF,Max Humidity, Mean Humidity, Min Humidity, Max Sea Level PressureIn, Mean Sea Level PressureIn, Min Sea Level PressureIn, Max VisibilityMiles, Mean VisibilityMiles, Min VisibilityMiles, Max Wind SpeedMPH, Mean Wind SpeedMPH, Max Gust SpeedMPH,PrecipitationIn, CloudCover, Events, WindDirDegrees
2012-12-1,55,42,29,37,32,28,92,65,38,29.84,29.78,29.65,10,10,5,35,4,45,0.02,4,Rain,258
2012-12-2,56,44,32,37,30,18,85,63,41,29.83,29.50,29.24,10,9,3,31,11,41,0.06,4,Rain,263
2012-12-3,46,40,34,22,20,18,61,47,33,30.20,30.06,29.84,10,10,10,28,11,37,0.00,2,,230
2012-12-4,51,42,32,33,26,19,61,50,39,30.17,30.01,29.89,10,10,10,25,9,33,0.00,5,,171
2012-12-5,55,42,29,37,26,16,56,45,34,30.13,29.90,29.74,10,10,10,30,12,44,T,2,Rain,247
2012-12-6,36,32,27,24,20,17,78,63,47,30.16,30.08,29.89,10,10,10,12,5,15,T,4,Snow,227
2012-12-7,38,30,22,28,20,11,85,59,32,30.04,29.86,29.61,10,8,1,26,9,36,0.05,4,Snow,256
2012-12-8,31,18,5,21,14,3,91,71,50,30.43,30.01,29.62,10,5,0,33,10,43,0.33,6,Fog-Snow,295
2012-12-9,27,12,-4,15,1,-8,95,71,46,30.60,30.39,30.20,10,8,0,30,5,36,0.00,3,Fog,278
2012-12-10,34,30,26,23,19,16,69,60,51,30.18,30.08,29.89,10,10,5,29,15,37,T,6,Snow,270
2012-12-11,44,37,30,26,24,20,78,58,37,30.01,29.76,29.60,10,10,10,21,6,26,0.00,5,,228
2012-12-12,38,33,28,31,28,25,92,81,70,29.95,29.71,29.53,10,7,2,8,2,10,0.01,8,Snow,222
2012-12-13,35,28,20,27,19,12,92,72,52,30.03,29.96,29.78,10,10,8,16,5,18,T,2,,229
2012-12-14,22,18,13,18,15,10,100,89,77,29.98,29.81,29.64,10,3,0,7,1,8,0.00,6,Fog,313
2012-12-15,28,21,13,22,13,10,92,83,73,30.03,29.85,29.77,10,4,0,7,1,9,0.00,6,Fog,293
2012-12-16,34,24,14,17,12,7,88,62,36,29.85,29.77,29.58,10,10,10,23,7,29,0.00,4,,230
2012-12-17,43,34,24,28,20,10,88,62,36,29.70,29.50,29.32,10,9,1,29,9,37,0.01,5,Snow,275
2012-12-18,29,23,16,10,8,6,59,49,39,30.05,29.88,29.63,10,10,10,24,10,32,0.00,1,,262
2012-12-19,25,15,4,8,4,2,73,62,50,30.27,30.19,30.06,10,10,10,9,3,10,0.00,1,,246
2012-12-20,38,25,12,13,8,3,70,51,32,30.27,30.18,29.94,10,10,10,18,4,22,0.00,0,,249
2012-12-21,36,28,19,19,13,10,69,54,38,30.15,30.08,30.03,10,10,10,12,4,13,0.00,3,,266
2012-12-22,28,22,15,15,12,8,80,71,62,30.12,30.03,29.93,10,9,7,10,3,12,0.00,4,,293
2012-12-23,29,20,10,16,12,8,92,75,58,30.17,30.03,29.75,10,7,2,15,3,17,T,4,Snow,282
2012-12-24,16,9,2,12,0,-7,88,75,62,30.53,30.12,29.77,10,4,0,16,9,20,0.35,8,Fog-Snow,288
2012-12-25,12,7,2,2,-1,-3,86,78,69,30.52,30.32,30.13,10,8,1,5,0,6,T,6,Snow,90
2012-12-26,18,13,7,12,8,2,83,78,73,30.11,29.95,29.76,9,5,2,3,0,5,0.03,8,Snow,90
2012-12-27,21,15,8,14,10,5,92,83,73,30.15,30.04,29.86,10,4,0,6,1,7,0.00,4,Fog,230
2012-12-28,34,22,10,19,14,8,96,71,45,30.27,30.18,29.94,10,9,5,20,5,24,0.00,3,,261
2012-12-29,24,16,8,12,9,7,84,72,59,30.30,30.24,30.19,10,10,10,9,2,10,0.00,2,,270
2012-12-30,26,17,7,12,9,5,92,74,55,30.34,30.28,30.22,10,9,4,18,3,23,0.01,4,Snow,277
2012-12-31,23,13,3,13,8,0,92,77,62,30.41,30.30,30.09,10,8,0,8,2,10,T,5,Fog-Snow,118